User: anonymous   Login
Location: Biharia
(46.4333°N, 22.8000°E)
Time: 11:38:02
(UTC+00:00)
Language:

Cosmos 1727 Rocket - Orbit

View from above orbital plane
View from above orbital plane
View from above satellite
View from above satellite

Ground track
Ground track

The orbit data is extracted from the following two-line orbital elements,

1 16511U 86008B   22026.12976898  .00000117  00000-0  10566-3 0  9998
2 16511  82.9421  51.0789 0022724 257.7556 163.3751 13.75803498807825
Epoch (UTC): 26 January 2022 03:06:52
Eccentricity: 0.0022724
inclination: 82.9421°
perigee height: 962 km
apogee height: 995 km
right ascension of ascending node: 51.0789°
argument of perigee: 257.7556°
revolutions per day: 13.75803498
mean anomaly at epoch: 163.3751°
orbit number at epoch: 80782

The dashed part of the orbit path shows where the satellite is in the earth's shadow,  

DLR